Wind_Speed
37 44 46 50 50 50 46 44 39 33 25 24 25 21 18 16 14 11 9 13 20 23 22 26 24 27 28 31 27 27 25 23 26 27 20 23 24 27 31 33 34 37 38
42 50 50 52 51 53 47 43 41 34 28 27 27 21 20 15 10 8 11 18 23 22 19 22 24 27 28 32 31 30 27 27 26 24 28 30 32 31 32 34 35 39 40
47 54 53 54 53 50 51 45 44 35 32 31 29 22 21 16 9 7 11 15 19 19 20 21 23 28 29 28 30 30 28 26 25 28 29 30 33 34 34 37 39 42 43
50 61 59 57 50 47 49 49 42 41 34 33 27 24 20 17 11 8 12 14 16 15 19 23 27 31 32 30 29 28 26 26 26 27 31 32 36 38 40 44 43 45 47
49 64 64 57 50 49 48 48 43 39 31 30 26 23 19 18 16 15 14 14 16 14 16 21 29 33 34 34 36 29 27 28 28 33 36 40 44 44 46 47 48 50 50
44 55 62 58 49 52 46 48 48 32 29 30 29 29 24 21 21 18 18 20 19 17 20 17 30 37 36 36 33 31 28 28 34 37 42 44 45 47 49 50 52 52 51
36 36 51 60 51 51 52 50 44 37 27 31 35 31 28 24 21 15 18 21 20 16 12 19 23 32 42 43 43 40 36 36 42 46 46 47 47 48 52 49 53 57 58
33 36 41 45 56 49 48 43 44 39 33 38 39 32 28 30 25 24 26 25 25 17 21 16 20 29 39 42 44 45 45 48 50 53 49 49 50 53 52 56 59 61 62
35 40 38 48 51 53 53 43 43 37 34 37 33 32 29 28 24 29 28 26 21 22 17 23 24 28 36 40 45 45 46 47 49 50 51 54 56 54 55 59 62 65 65
32 32 38 43 49 52 55 49 46 41 39 39 31 31 26 22 22 24 25 25 24 26 26 27 31 31 37 41 44 45 48 48 51 53 56 58 55 56 60 62 65 64 65
29 28 31 39 39 51 54 53 42 39 40 39 35 32 31 26 24 28 25 29 31 32 29 31 37 38 39 39 40 44 48 52 56 55 57 58 59 62 64 67 65 63 61
38 34 36 42 45 43 47 44 40 41 45 38 32 30 31 32 34 33 30 30 33 35 40 40 41 42 42 42 45 50 54 57 57 58 59 61 62 64 67 64 60 57 55
35 38 35 44 43 42 42 38 42 44 40 43 44 40 42 40 36 35 38 42 41 46 45 46 46 48 50 51 53 57 55 55 57 60 62 65 67 68 61 58 56 54 51
38 35 31 44 47 41 43 47 42 46 48 47 46 45 43 44 46 44 48 45 46 50 50 52 52 52 56 58 61 63 59 60 62 65 68 71 69 65 62 60 55 55 55
31 34 35 34 41 38 45 44 54 58 54 54 51 50 49 50 54 55 53 53 56 57 58 59 62 61 58 63 65 64 65 69 72 71 71 69 66 60 56 56 54 51 47
37 34 34 42 47 46 49 51 52 56 57 58 61 59 58 59 58 57 60 60 61 61 59 62 62 61 62 66 70 72 74 71 62 61 62 61 59 54 46 42 40 41 42
45 42 45 48 48 50 52 52 55 60 59 59 56 54 59 63 65 63 62 58 56 56 56 62 63 67 70 73 70 64 54 51 49 46 47 47 44 44 46 47 47 46 47
47 53 52 51 52 54 59 60 57 59 59 56 59 62 65 66 67 63 57 55 57 59 62 67 72 63 54 49 46 46 47 48 48 48 50 50 53 54 53 51 50 52 53
46 54 59 63 66 65 63 63 65 64 66 68 67 65 63 59 58 57 58 61 66 67 57 42 41 43 45 47 48 49 51 52 51 53 54 55 54 53 54 54 55 57 57
50 52 53 58 60 59 63 67 68 63 59 59 59 60 61 62 64 64 60 55 49 43 43 43 43 48 50 54 50 52 52 54 56 59 59 59 61 62 60 60 62 61 64
54 53 57 55 56 59 61 65 67 67 69 68 66 63 58 52 48 44 43 46 48 50 50 47 47 49 54 56 57 57 57 61 63 67 66 68 66 65 67 70 72 74 73
40 48 53 54 53 54 56 59 62 62 56 49 45 43 44 46 47 47 50 52 52 53 53 54 56 57 57 60 62 62 62 62 64 67 71 74 73 71 71 72 75 78 79
40 38 39 41 40 39 43 44 44 44 44 43 44 46 47 48 49 52 54 55 56 56 58 59 60 62 63 65 67 68 72 73 74 74 73 74 77 76 78 78 79 81 83
40 42 46 47 47 46 46 48 49 48 46 47 48 49 50 52 54 57 60 62 64 65 66 67 69 69 70 71 73 75 76 79 78 78 81 82 82 84 88 86 89 91 93
47 48 47 48 50 50 50 52 52 54 54 53 55 57 58 60 63 65 66 67 69 70 71 73 75 75 77 77 79 80 83 85 85 85 87 89 91 91 89 91 91 93 96
52 53 53 53 54 54 54 54 55 55 57 58 60 62 64 66 69 70 71 73 76 77 77 78 80 82 82 84 84 85 88 88 88 90 92 95 93 94 97 99 101 103 103
Wind_Direction
219 208 213 212 210 205 205 202 193 190 197 203 204 206 233 236 240 253 304 306 295 282 281 273 254 239 241 240 250 246 248 256 255 264 275 287 298 305 310 308 306 310 318
214 208 212 214 212 205 211 203 198 196 194 202 203 223 227 214 222 264 297 310 299 297 284 259 247 236 240 246 252 255 249 254 260 272 275 287 295 306 309 308 310 316 317
219 209 207 205 206 206 212 207 201 206 203 203 205 237 233 204 217 265 305 313 303 299 284 257 240 228 233 241 250 255 260 260 267 275 286 288 297 307 308 310 309 314 317
217 207 208 204 207 202 214 214 212 215 210 211 227 240 218 205 226 248 294 311 311 296 281 262 239 228 233 240 248 256 261 270 271 287 292 295 297 304 307 306 310 313 312
214 211 208 205 206 207 210 213 211 208 215 219 216 206 213 222 243 258 263 288 307 297 276 256 236 228 233 245 250 256 261 271 276 283 292 295 298 298 304 305 308 309 310
217 218 214 213 211 207 207 214 205 210 203 208 211 213 225 236 249 257 266 297 303 307 292 264 243 240 241 246 257 263 265 273 280 287 295 295 296 294 300 302 303 307 308
213 219 218 221 213 213 212 214 213 219 216 224 219 220 225 240 264 253 272 290 289 289 294 281 252 249 249 251 254 262 262 270 280 288 292 289 293 295 299 300 304 304 307
215 219 218 220 216 215 212 211 213 212 228 226 223 224 224 255 255 257 277 281 294 275 256 277 257 252 251 258 261 259 264 267 279 281 285 290 291 294 298 299 300 303 304
216 217 213 213 218 220 214 212 211 214 224 219 216 222 237 246 257 273 279 294 281 270 279 267 260 260 256 257 258 262 267 275 278 277 286 290 291 292 294 298 300 301 303
216 211 210 214 214 212 214 214 215 230 225 224 221 231 241 238 260 270 273 284 274 266 263 272 258 269 265 268 269 268 274 277 279 283 288 290 289 292 294 296 298 299 300
185 200 220 206 210 210 209 214 212 221 229 224 238 235 242 255 257 276 277 288 264 267 263 279 271 266 266 272 273 275 281 282 282 282 284 286 289 292 295 295 296 294 292
186 215 218 200 203 208 202 215 220 220 225 228 232 236 243 255 262 269 277 279 268 276 278 271 276 272 270 271 275 282 282 279 282 282 283 286 290 292 291 291 288 285 283
205 213 203 200 203 205 210 208 223 219 230 234 240 243 257 258 262 266 273 279 273 271 279 272 271 272 273 274 279 283 282 279 281 284 286 287 290 288 285 283 284 283 288
214 205 196 197 203 213 215 217 215 228 233 235 240 245 251 260 269 270 276 279 279 268 267 269 273 273 277 273 279 285 281 282 283 283 285 285 284 281 281 286 285 286 287
211 203 196 191 201 212 224 234 234 239 245 246 249 252 260 267 269 272 276 277 275 276 271 272 275 276 275 276 282 283 284 285 284 282 281 279 278 282 280 280 283 286 285
202 196 196 205 205 211 223 231 241 243 246 249 253 258 264 266 268 270 273 272 275 276 273 275 276 279 279 281 283 281 280 278 276 276 277 277 278 280 281 280 280 282 285
201 194 197 204 209 217 223 233 238 247 249 252 254 259 263 266 269 272 273 272 273 274 274 278 278 278 278 279 277 278 280 280 279 278 279 278 277 280 279 278 278 281 283
213 210 207 208 214 219 227 233 240 249 251 258 262 264 264 266 269 268 267 269 271 273 276 277 277 275 276 274 275 281 279 278 279 280 280 279 277 279 282 281 281 284 285
221 214 214 215 217 222 230 238 243 253 259 260 262 263 264 263 263 266 271 272 273 272 270 268 271 272 273 275 275 275 276 278 281 281 282 282 281 280 280 283 286 286 287
220 224 227 228 229 234 238 243 249 253 255 255 258 259 264 266 269 269 265 262 261 260 261 260 264 271 274 276 277 278 282 283 284 286 285 287 287 284 281 282 283 287 289
221 226 228 229 232 236 241 242 244 247 249 252 254 256 256 255 254 255 259 263 266 267 266 270 270 272 276 278 279 281 281 281 284 285 287 285 287 285 283 283 287 288 290
223 229 233 236 239 242 246 249 251 254 255 255 255 255 257 258 259 260 267 270 271 272 275 277 277 276 275 278 281 282 282 283 285 290 290 289 287 287 289 289 288 288 289
228 226 233 235 237 243 244 243 244 247 251 252 253 255 258 262 265 268 271 274 276 276 274 275 277 277 277 278 279 280 282 284 284 287 289 290 288 286 287 290 290 290 291
240 237 236 239 244 248 247 246 247 249 254 255 258 261 264 266 269 272 272 272 273 274 275 277 278 279 279 279 279 280 280 281 281 283 285 286 286 286 286 286 288 290 290
245 244 242 244 248 253 254 254 256 256 260 262 264 264 267 270 272 277 279 278 279 279 279 280 281 280 280 279 280 281 281 281 280 281 282 285 284 283 283 283 284 289 287
251 252 252 251 253 254 257 259 261 263 265 267 269 270 272 275 275 276 277 278 279 280 280 282 283 283 283 282 281 280 280 281 282 283 284 286 284 283 284 286 287 287 289
Height
10666 10671 10677 10683 10688 10694 10698 10704 10708 10713 10716 10720 10723 10726 10728 10729 10731 10732 10732 10732 10731 10731 10731 10732 10733 10736 10738 10739 10740 10742 10743 10743 10744 10744 10743 10742 10740 10738 10736 10733 10730 10727 10722
10659 10664 10671 10676 10683 10688 10694 10700 10705 10709 10711 10715 10719 10722 10724 10725 10726 10727 10727 10727 10726 10726 10725 10726 10728 10731 10734 10735 10737 10737 10738 10738 10739 10739 10739 10737 10735 10732 10729 10727 10723 10720 10715
10651 10657 10665 10670 10677 10683 10689 10694 10701 10705 10706 10710 10715 10718 10719 10720 10721 10723 10723 10722 10722 10720 10720 10722 10724 10726 10728 10730 10731 10732 10732 10732 10733 10734 10732 10730 10728 10725 10723 10720 10716 10713 10708
10643 10650 10658 10664 10671 10679 10684 10689 10696 10700 10704 10708 10711 10713 10715 10715 10717 10718 10720 10719 10716 10715 10715 10716 10719 10721 10723 10725 10726 10726 10727 10727 10727 10726 10725 10723 10721 10718 10716 10712 10708 10705 10701
10636 10643 10651 10657 10665 10672 10677 10685 10691 10696 10701 10705 10707 10708 10710 10711 10712 10713 10715 10716 10714 10712 10711 10711 10713 10715 10718 10720 10720 10721 10721 10720 10719 10719 10718 10716 10713 10711 10708 10704 10701 10697 10693
10629 10636 10644 10651 10658 10666 10672 10679 10685 10691 10695 10698 10700 10702 10704 10706 10707 10708 10710 10711 10711 10709 10706 10707 10709 10711 10713 10715 10716 10716 10715 10713 10713 10712 10710 10708 10705 10702 10699 10695 10692 10688 10683
10622 10627 10636 10643 10652 10659 10666 10672 10679 10686 10689 10692 10694 10696 10698 10700 10701 10703 10704 10705 10706 10706 10704 10702 10703 10705 10707 10708 10708 10709 10708 10706 10704 10703 10702 10699 10696 10693 10690 10686 10682 10678 10674
10616 10621 10628 10635 10644 10652 10659 10668 10674 10680 10682 10685 10688 10690 10692 10693 10694 10697 10698 10700 10700 10700 10699 10699 10698 10699 10700 10700 10701 10701 10701 10699 10697 10695 10693 10690 10686 10683 10680 10676 10672 10667 10664
10610 10615 10620 10628 10635 10644 10653 10661 10667 10673 10676 10680 10681 10684 10685 10686 10688 10690 10692 10691 10692 10693 10693 10692 10693 10694 10693 10692 10692 10691 10691 10690 10687 10685 10682 10680 10676 10672 10669 10665 10661 10657 10652
10606 10610 10615 10621 10629 10636 10645 10653 10660 10666 10670 10673 10675 10676 10679 10679 10681 10683 10683 10683 10683 10684 10685 10685 10686 10686 10685 10685 10684 10683 10682 10680 10677 10674 10671 10668 10665 10661 10657 10653 10650 10644 10641
10602 10610 10612 10617 10624 10631 10640 10648 10655 10660 10662 10666 10667 10670 10670 10672 10673 10674 10675 10676 10677 10678 10678 10678 10678 10677 10677 10676 10675 10674 10671 10669 10666 10663 10659 10656 10653 10649 10645 10641 10637 10632 10628
10598 10604 10607 10613 10620 10627 10636 10644 10649 10653 10655 10657 10659 10661 10663 10664 10665 10666 10668 10669 10670 10670 10671 10669 10668 10668 10667 10665 10663 10661 10659 10656 10653 10650 10647 10644 10640 10636 10632 10628 10624 10620 10615
10594 10598 10603 10610 10617 10625 10633 10639 10643 10645 10647 10649 10652 10654 10655 10656 10658 10658 10660 10661 10661 10660 10659 10658 10657 10657 10655 10654 10651 10649 10646 10643 10640 10637 10634 10630 10626 10622 10617 10613 10609 10607 10604
10591 10595 10601 10606 10614 10621 10628 10631 10633 10637 10639 10641 10644 10645 10648 10648 10649 10649 10651 10651 10650 10650 10649 10647 10646 10644 10642 10641 10638 10636 10632 10629 10626 10623 10618 10614 10610 10607 10603 10599 10596 10594 10591
10588 10593 10598 10604 10612 10617 10621 10624 10626 10628 10630 10633 10635 10638 10638 10638 10638 10639 10640 10639 10638 10637 10636 10635 10633 10632 10629 10627 10624 10621 10618 10613 10609 10606 10603 10598 10594 10591 10588 10585 10584 10580 10576
10585 10590 10595 10601 10605 10610 10613 10615 10616 10618 10621 10625 10627 10627 10627 10628 10628 10627 10627 10626 10625 10624 10624 10621 10620 10618 10616 10612 10606 10604 10601 10597 10593 10589 10587 10583 10580 10578 10576 10574 10571 10569 10566
10579 10584 10589 10594 10599 10603 10604 10607 10607 10608 10612 10615 10615 10616 10616 10617 10616 10615 10614 10613 10612 10610 10611 10606 10604 10602 10598 10595 10590 10587 10584 10582 10579 10577 10574 10571 10569 10567 10565 10562 10559 10557 10554
10572 10578 10581 10585 10589 10592 10594 10596 10597 10597 10600 10604 10605 10604 10603 10604 10603 10602 10602 10601 10600 10597 10597 10595 10587 10584 10583 10579 10577 10574 10572 10569 10568 10564 10561 10558 10555 10553 10552 10549 10547 10544 10541
10566 10571 10575 10578 10580 10582 10584 10586 10589 10590 10590 10592 10593 10592 10591 10592 10590 10591 10591 10588 10586 10585 10583 10582 10575 10572 10569 10567 10565 10562 10557 10555 10552 10549 10546 10541 10539 10537 10536 10536 10533 10528 10525
10560 10563 10567 10572 10574 10577 10578 10579 10580 10580 10580 10579 10579 10579 10580 10580 10578 10578 10576 10572 10571 10570 10568 10568 10565 10560 10557 10552 10554 10549 10547 10542 10537 10532 10531 10530 10526 10521 10519 10517 10515 10512 10508
10549 10554 10558 10561 10563 10565 10566 10566 10566 10566 10566 10566 10566 10566 10566 10564 10563 10563 10562 10559 10558 10557 10557 10556 10556 10552 10544 10540 10538 10535 10533 10526 10520 10515 10515 10510 10510 10504 10503 10502 10497 10493 10488
10540 10543 10546 10549 10551 10551 10551 10552 10553 10554 10555 10555 10556 10555 10554 10553 10552 10551 10548 10546 10545 10545 10545 10543 10541 10539 10534 10528 10521 10517 10514 10511 10509 10500 10496 10492 10489 10484 10481 10479 10476 10472 10467
10534 10537 10539 10541 10540 10541 10542 10543 10543 10543 10543 10544 10543 10541 10541 10541 10540 10538 10536 10535 10532 10531 10530 10527 10525 10520 10519 10514 10509 10504 10498 10493 10488 10484 10480 10475 10471 10466 10463 10459 10455 10451 10446
10523 10525 10527 10527 10527 10528 10529 10528 10529 10530 10532 10532 10531 10530 10529 10529 10527 10524 10521 10520 10517 10515 10512 10509 10506 10504 10501 10496 10490 10486 10482 10476 10469 10466 10461 10455 10451 10447 10442 10438 10434 10430 10425
10511 10513 10515 10516 10516 10515 10516 10517 10518 10519 10519 10520 10518 10516 10514 10514 10511 10507 10504 10502 10499 10497 10495 10490 10486 10484 10481 10477 10472 10467 10461 10456 10451 10446 10441 10433 10430 10425 10421 10417 10411 10406 10401
10498 10500 10501 10503 10503 10502 10501 10501 10502 10503 10504 10504 10502 10500 10498 10497 10493 10490 10486 10484 10480 10478 10475 10472 10466 10461 10457 10454 10450 10445 10440 10434 10429 10424 10417 10410 10404 10398 10394 10388 10382 10376 10371